QPF
0.06 0.27 0.35 0.36 0.23 0.18 0.27 0.25 0.24 0.16 0.08 0.15 0.03 0.00 0.00 0.00 0.00 0.00 0.00 0.00 0.00 0.00 0.00 0.01 0.02 0.01 0.00 0.00 0.00 0.00 0.00 0.00 0.00 0.00 0.00 0.00 0.00 0.00 0.00 0.00 0.00 0.00 0.00
0.16 0.49 0.48 0.59 0.76 0.43 0.26 0.18 0.15 0.10 0.06 0.13 0.12 0.04 0.02 0.04 0.01 0.00 0.00 0.00 0.00 0.00 0.00 0.00 0.05 0.07 0.06 0.03 0.00 0.00 0.01 0.03 0.02 0.01 0.01 0.00 0.00 0.00 0.00 0.00 0.00 0.00 0.00
0.15 0.54 0.54 0.31 0.38 0.77 0.41 0.14 0.11 0.09 0.04 0.08 0.12 0.11 0.11 0.15 0.04 0.03 0.00 0.03 0.00 0.00 0.01 0.06 0.09 0.08 0.11 0.08 0.05 0.04 0.07 0.08 0.08 0.07 0.02 0.00 0.00 0.00 0.00 0.00 0.00 0.00 0.00
0.12 0.31 0.49 0.21 0.18 0.32 0.54 0.26 0.17 0.17 0.10 0.05 0.05 0.08 0.09 0.09 0.09 0.15 0.12 0.15 0.11 0.04 0.03 0.05 0.07 0.08 0.10 0.15 0.25 0.21 0.15 0.13 0.09 0.08 0.04 0.05 0.02 0.00 0.00 0.00 0.00 0.00 0.00
0.06 0.08 0.25 0.36 0.30 0.22 0.45 0.38 0.24 0.14 0.14 0.07 0.05 0.06 0.09 0.05 0.04 0.07 0.07 0.04 0.04 0.04 0.01 0.04 0.11 0.17 0.14 0.17 0.46 0.77 0.64 0.28 0.08 0.03 0.05 0.05 0.03 0.01 0.00 0.00 0.00 0.00 0.00
0.01 0.03 0.09 0.13 0.16 0.18 0.16 0.12 0.10 0.07 0.05 0.15 0.13 0.08 0.08 0.07 0.10 0.12 0.08 0.03 0.02 0.01 0.01 0.02 0.06 0.13 0.12 0.09 0.11 0.26 0.32 0.33 0.23 0.11 0.06 0.04 0.04 0.03 0.00 0.00 0.00 0.00 0.00
0.00 0.01 0.01 0.00 0.00 0.01 0.11 0.14 0.13 0.10 0.09 0.23 0.22 0.08 0.07 0.12 0.18 0.28 0.29 0.17 0.09 0.03 0.04 0.05 0.05 0.07 0.11 0.09 0.06 0.04 0.03 0.04 0.03 0.01 0.00 0.00 0.00 0.00 0.00 0.00 0.00 0.00 0.00
0.00 0.00 0.00 0.00 0.00 0.00 0.00 0.01 0.01 0.04 0.05 0.06 0.19 0.14 0.15 0.15 0.08 0.17 0.19 0.25 0.22 0.14 0.07 0.11 0.14 0.05 0.03 0.03 0.01 0.00 0.00 0.00 0.00 0.00 0.00 0.00 0.00 0.00 0.00 0.00 0.00 0.00 0.00
0.00 0.00 0.00 0.00 0.00 0.00 0.00 0.00 0.00 0.00 0.00 0.00 0.00 0.01 0.03 0.06 0.03 0.07 0.09 0.10 0.04 0.07 0.07 0.05 0.03 0.00 0.01 0.00 0.00 0.00 0.00 0.00 0.00 0.00 0.00 0.00 0.00 0.00 0.00 0.00 0.00 0.00 0.00
0.00 0.00 0.00 0.00 0.00 0.00 0.00 0.00 0.00 0.00 0.00 0.00 0.00 0.00 0.00 0.00 0.01 0.01 0.02 0.02 0.01 0.01 0.01 0.01 0.00 0.00 0.00 0.00 0.00 0.00 0.00 0.00 0.00 0.00 0.00 0.00 0.00 0.00 0.00 0.00 0.00 0.00 0.00
0.00 0.00 0.00 0.00 0.00 0.00 0.00 0.00 0.00 0.00 0.00 0.00 0.00 0.00 0.00 0.00 0.00 0.00 0.00 0.00 0.00 0.01 0.01 0.00 0.00 0.00 0.00 0.00 0.00 0.00 0.00 0.00 0.00 0.00 0.00 0.00 0.00 0.00 0.00 0.00 0.00 0.00 0.00
0.00 0.00 0.00 0.00 0.00 0.00 0.00 0.00 0.00 0.00 0.00 0.00 0.00 0.00 0.00 0.00 0.00 0.00 0.00 0.00 0.00 0.00 0.00 0.00 0.00 0.00 0.00 0.00 0.00 0.00 0.00 0.00 0.00 0.00 0.00 0.00 0.00 0.00 0.00 0.00 0.00 0.00 0.00
0.00 0.00 0.00 0.00 0.00 0.00 0.00 0.00 0.00 0.00 0.00 0.00 0.00 0.00 0.00 0.00 0.00 0.00 0.00 0.00 0.00 0.00 0.00 0.00 0.01 0.01 0.00 0.00 0.00 0.00 0.00 0.00 0.00 0.00 0.00 0.00 0.00 0.00 0.00 0.00 0.00 0.00 0.00
0.00 0.00 0.00 0.00 0.00 0.00 0.00 0.00 0.00 0.00 0.00 0.00 0.00 0.00 0.00 0.00 0.00 0.00 0.00 0.00 0.00 0.01 0.00 0.01 0.01 0.00 0.00 0.00 0.00 0.00 0.00 0.00 0.00 0.00 0.00 0.00 0.00 0.00 0.00 0.00 0.00 0.00 0.00
0.00 0.00 0.00 0.00 0.00 0.00 0.00 0.00 0.00 0.00 0.00 0.00 0.00 0.00 0.00 0.00 0.00 0.00 0.00 0.00 0.00 0.01 0.01 0.01 0.01 0.00 0.00 0.00 0.00 0.00 0.00 0.00 0.00 0.00 0.00 0.00 0.00 0.00 0.00 0.00 0.00 0.00 0.00
0.00 0.00 0.00 0.00 0.00 0.00 0.00 0.00 0.00 0.00 0.00 0.00 0.00 0.00 0.00 0.00 0.00 0.00 0.00 0.00 0.00 0.00 0.00 0.00 0.00 0.00 0.00 0.00 0.00 0.00 0.00 0.00 0.00 0.00 0.00 0.00 0.00 0.00 0.00 0.00 0.00 0.00 0.00
0.00 0.00 0.00 0.00 0.00 0.00 0.00 0.00 0.00 0.00 0.00 0.00 0.00 0.00 0.00 0.00 0.00 0.00 0.00 0.00 0.00 0.00 0.00 0.00 0.00 0.00 0.00 0.00 0.00 0.00 0.00 0.00 0.00 0.00 0.00 0.00 0.00 0.00 0.00 0.00 0.00 0.00 0.00
0.00 0.00 0.00 0.00 0.00 0.00 0.00 0.00 0.00 0.00 0.00 0.00 0.00 0.00 0.00 0.00 0.00 0.00 0.00 0.00 0.00 0.00 0.00 0.00 0.00 0.00 0.00 0.00 0.00 0.00 0.00 0.00 0.00 0.00 0.00 0.00 0.00 0.00 0.00 0.00 0.00 0.00 0.00
0.00 0.00 0.00 0.00 0.00 0.00 0.00 0.00 0.00 0.00 0.00 0.00 0.00 0.00 0.00 0.00 0.00 0.00 0.00 0.00 0.00 0.00 0.00 0.00 0.00 0.00 0.00 0.00 0.00 0.00 0.00 0.00 0.00 0.00 0.00 0.00 0.00 0.00 0.00 0.00 0.00 0.00 0.00
0.00 0.00 0.00 0.00 0.00 0.00 0.00 0.00 0.00 0.00 0.00 0.00 0.00 0.00 0.00 0.00 0.00 0.00 0.00 0.00 0.00 0.00 0.00 0.00 0.00 0.00 0.00 0.00 0.00 0.00 0.00 0.00 0.00 0.00 0.00 0.00 0.00 0.00 0.00 0.00 0.00 0.00 0.00
0.00 0.00 0.00 0.00 0.00 0.00 0.00 0.00 0.00 0.00 0.00 0.00 0.00 0.00 0.00 0.00 0.00 0.00 0.00 0.00 0.00 0.00 0.00 0.00 0.00 0.00 0.00 0.00 0.00 0.00 0.00 0.00 0.00 0.00 0.00 0.00 0.00 0.00 0.00 0.00 0.00 0.00 0.00
0.00 0.00 0.00 0.00 0.00 0.00 0.00 0.00 0.00 0.00 0.00 0.00 0.00 0.00 0.00 0.00 0.00 0.00 0.00 0.00 0.00 0.00 0.00 0.00 0.00 0.00 0.00 0.00 0.00 0.00 0.00 0.00 0.00 0.00 0.00 0.00 0.00 0.00 0.00 0.00 0.00 0.00 0.00
0.00 0.00 0.00 0.00 0.00 0.00 0.00 0.00 0.00 0.00 0.00 0.00 0.00 0.00 0.00 0.00 0.00 0.00 0.00 0.00 0.00 0.00 0.00 0.00 0.00 0.00 0.00 0.00 0.00 0.00 0.00 0.00 0.00 0.00 0.00 0.00 0.00 0.00 0.00 0.00 0.00 0.00 0.00
0.00 0.00 0.00 0.00 0.00 0.00 0.00 0.00 0.00 0.00 0.00 0.00 0.00 0.00 0.00 0.00 0.00 0.00 0.00 0.00 0.00 0.00 0.00 0.00 0.00 0.00 0.00 0.00 0.00 0.00 0.00 0.00 0.00 0.00 0.00 0.00 0.00 0.00 0.00 0.00 0.00 0.00 0.00
0.00 0.00 0.00 0.00 0.00 0.00 0.00 0.00 0.00 0.01 0.02 0.02 0.02 0.01 0.01 0.02 0.02 0.02 0.01 0.00 0.00 0.00 0.00 0.00 0.00 0.00 0.00 0.00 0.00 0.00 0.00 0.00 0.00 0.00 0.00 0.00 0.00 0.00 0.00 0.00 0.00 0.00 0.00
0.00 0.00 0.00 0.00 0.00 0.00 0.00 0.01 0.02 0.05 0.06 0.05 0.03 0.03 0.05 0.06 0.06 0.05 0.02 0.02 0.02 0.02 0.02 0.04 0.04 0.03 0.03 0.04 0.02 0.00 0.00 0.00 0.00 0.00 0.00 0.00 0.00 0.00 0.00 0.00 0.00 0.00 0.00
MSLP
1007.47 1007.67 1008.45 1008.26 1008.40 1008.67 1009.44 1009.54 1010.33 1010.50 1010.48 1010.54 1011.23 1011.59 1011.88 1012.16 1012.54 1012.75 1013.05 1013.28 1013.63 1013.84 1014.49 1014.70 1014.87 1014.98 1015.42 1015.68 1016.06 1016.20 1016.11 1016.24 1016.29 1016.56 1016.62 1016.60 1016.46 1016.88 1017.07 1017.41 1017.49 1017.86 1017.94
1006.96 1007.42 1008.45 1008.69 1008.88 1009.54 1009.73 1010.26 1010.46 1010.68 1010.79 1011.10 1011.17 1011.41 1011.87 1012.14 1012.46 1012.60 1012.95 1013.16 1013.33 1013.64 1013.92 1014.40 1015.00 1015.40 1015.63 1015.74 1015.84 1015.90 1015.90 1015.96 1016.22 1016.44 1016.55 1016.41 1016.47 1016.89 1017.43 1017.62 1017.71 1017.89 1018.02
1007.07 1007.62 1009.00 1008.91 1009.24 1009.79 1009.82 1010.25 1010.30 1010.86 1011.22 1011.56 1011.61 1011.42 1011.61 1012.14 1012.62 1012.64 1012.80 1012.97 1013.28 1013.39 1013.95 1014.26 1014.96 1015.40 1015.94 1016.09 1016.19 1016.06 1016.02 1016.28 1016.48 1016.46 1016.37 1016.54 1016.78 1016.92 1017.15 1017.49 1017.75 1017.89 1018.26
1007.52 1008.29 1009.27 1009.76 1009.47 1009.94 1009.64 1009.93 1010.41 1010.52 1011.60 1011.95 1012.00 1012.02 1012.04 1012.39 1012.50 1012.58 1012.88 1012.97 1013.15 1013.47 1013.92 1014.45 1015.14 1015.57 1016.18 1016.73 1016.73 1016.87 1016.86 1016.60 1016.82 1017.13 1017.41 1017.36 1017.59 1017.60 1017.42 1017.40 1017.62 1017.93 1018.01
1008.14 1008.37 1008.66 1009.32 1009.51 1009.47 1008.95 1009.96 1010.91 1011.43 1011.75 1012.16 1012.14 1012.12 1012.15 1012.48 1012.57 1012.98 1013.20 1013.56 1013.50 1013.84 1013.92 1014.09 1015.10 1015.31 1015.79 1016.77 1016.60 1017.02 1016.77 1017.19 1017.74 1017.50 1017.80 1018.04 1018.26 1018.25 1018.22 1017.64 1017.25 1017.79 1018.11
1007.76 1008.16 1008.58 1009.27 1009.58 1009.54 1009.85 1010.46 1010.90 1010.87 1011.22 1011.25 1011.41 1011.90 1011.86 1011.80 1012.59 1012.80 1013.36 1013.75 1013.74 1014.10 1013.88 1014.09 1014.08 1014.85 1015.74 1016.09 1016.21 1016.57 1016.53 1016.50 1017.11 1017.06 1017.43 1017.90 1018.07 1018.01 1018.16 1017.87 1017.49 1017.34 1017.57
1007.88 1008.60 1008.80 1009.01 1009.13 1009.36 1009.89 1010.09 1010.10 1010.41 1010.60 1010.82 1011.15 1011.28 1011.31 1011.62 1012.15 1012.14 1011.97 1012.72 1013.23 1013.68 1013.76 1013.61 1014.15 1015.24 1015.48 1015.52 1015.93 1016.48 1016.68 1016.48 1016.57 1016.78 1017.01 1017.57 1017.75 1017.80 1018.05 1018.29 1017.99 1017.93 1017.92
1007.66 1008.32 1008.64 1008.74 1008.75 1009.01 1009.04 1009.38 1009.26 1009.37 1009.52 1009.84 1009.87 1010.62 1010.78 1010.79 1010.71 1011.34 1012.08 1012.08 1012.59 1012.90 1013.51 1013.58 1013.99 1014.99 1015.00 1015.37 1015.97 1016.56 1016.56 1016.91 1016.94 1017.01 1017.00 1017.22 1017.68 1017.77 1018.02 1018.30 1018.54 1018.58 1018.43
1008.45 1008.47 1008.96 1009.42 1009.37 1009.48 1009.68 1009.58 1009.29 1009.42 1009.34 1009.40 1009.26 1009.72 1010.03 1010.13 1010.52 1010.38 1011.02 1011.64 1012.03 1012.50 1013.05 1013.75 1014.48 1014.90 1015.19 1015.54 1015.88 1016.32 1016.31 1016.59 1016.98 1016.86 1016.92 1017.10 1017.45 1017.74 1017.90 1018.09 1018.51 1018.95 1018.80
1008.67 1009.06 1009.37 1009.72 1009.83 1009.92 1009.89 1009.55 1009.38 1009.26 1009.17 1009.25 1009.26 1009.21 1009.37 1009.72 1010.25 1010.57 1010.91 1011.41 1011.87 1012.33 1012.85 1013.58 1013.87 1014.57 1015.02 1015.42 1015.67 1015.84 1016.16 1016.43 1016.57 1016.95 1017.06 1017.07 1017.62 1017.73 1018.13 1018.38 1018.70 1019.02 1019.16
1009.09 1009.34 1009.70 1009.66 1009.77 1009.87 1009.76 1009.55 1009.43 1009.62 1009.56 1009.50 1009.50 1009.48 1009.12 1009.60 1010.00 1010.46 1010.53 1011.10 1011.58 1012.17 1012.70 1012.93 1013.59 1014.21 1014.78 1015.10 1015.39 1015.80 1016.19 1016.42 1016.75 1016.93 1016.94 1017.05 1017.43 1017.98 1018.22 1018.49 1018.69 1018.73 1019.22
1008.92 1008.59 1008.62 1008.89 1009.25 1009.59 1009.59 1009.83 1009.58 1009.38 1009.70 1009.95 1009.78 1009.75 1009.49 1010.05 1010.26 1010.32 1010.58 1011.09 1011.35 1011.77 1012.48 1012.82 1013.23 1013.82 1014.45 1014.75 1015.04 1015.63 1016.01 1016.20 1016.62 1016.84 1017.08 1017.24 1017.60 1017.96 1018.24 1018.48 1018.89 1018.44 1019.03
1009.26 1009.33 1009.65 1009.90 1009.93 1010.01 1010.01 1010.07 1009.99 1010.09 1010.25 1010.35 1010.09 1009.93 1010.36 1010.47 1010.56 1010.54 1011.04 1011.36 1011.49 1011.66 1012.01 1012.54 1012.87 1013.40 1014.08 1014.55 1015.06 1015.62 1015.83 1016.05 1016.43 1016.69 1016.88 1017.12 1017.35 1017.97 1018.22 1018.16 1018.45 1018.83 1019.29
1010.13 1010.22 1010.81 1010.55 1010.28 1010.46 1010.63 1010.53 1010.45 1010.45 1010.64 1010.52 1010.33 1010.26 1010.50 1010.79 1010.79 1011.04 1011.13 1011.46 1011.53 1011.65 1011.90 1012.26 1012.92 1013.29 1013.78 1014.42 1014.64 1015.51 1015.56 1015.97 1016.13 1016.65 1016.85 1017.10 1017.40 1017.46 1018.06 1018.47 1018.58 1018.94 1019.33
1010.59 1011.26 1011.26 1011.14 1011.33 1011.10 1010.92 1010.82 1010.60 1010.63 1010.43 1010.48 1010.27 1010.29 1010.47 1010.58 1010.78 1011.06 1011.09 1011.22 1011.38 1011.73 1011.93 1012.39 1012.98 1013.12 1013.79 1014.23 1014.69 1015.36 1015.87 1015.78 1016.49 1016.42 1017.02 1017.30 1017.08 1017.72 1017.87 1018.43 1018.93 1019.13 1019.30
1012.59 1012.22 1011.69 1011.58 1011.51 1011.21 1010.98 1010.85 1010.80 1010.67 1010.66 1010.23 1009.90 1009.97 1010.10 1010.31 1010.40 1010.48 1010.75 1011.05 1011.25 1011.74 1012.27 1012.42 1012.80 1013.36 1013.77 1014.21 1014.85 1014.70 1015.54 1015.47 1016.26 1016.77 1016.82 1017.42 1017.52 1018.00 1018.12 1018.60 1019.04 1019.11 1019.66
1013.91 1013.70 1013.34 1013.06 1012.71 1012.16 1011.75 1010.84 1010.55 1010.34 1010.22 1010.23 1010.24 1009.88 1009.65 1009.67 1009.71 1009.91 1010.39 1010.85 1011.14 1011.32 1011.70 1012.11 1012.53 1013.15 1013.64 1014.28 1014.54 1014.85 1015.49 1015.89 1016.18 1016.46 1017.02 1017.28 1017.41 1018.01 1018.47 1019.12 1019.10 1019.63 1019.63
1014.69 1014.68 1014.26 1013.98 1013.57 1012.87 1012.22 1011.56 1011.19 1010.82 1010.33 1009.74 1009.60 1009.68 1009.71 1009.51 1009.58 1009.62 1009.66 1009.81 1010.31 1010.76 1011.24 1011.66 1012.15 1012.80 1013.17 1014.15 1014.52 1015.22 1015.47 1015.88 1016.18 1016.56 1016.80 1016.94 1017.19 1017.70 1018.24 1018.78 1019.44 1019.73 1019.72
1012.87 1012.96 1013.17 1013.14 1012.76 1012.59 1012.57 1012.24 1011.78 1011.11 1010.57 1010.06 1009.77 1009.41 1009.22 1008.88 1008.99 1009.14 1009.35 1009.47 1009.71 1010.06 1010.30 1011.09 1011.94 1012.35 1012.78 1013.67 1014.11 1014.56 1015.75 1016.23 1016.54 1016.56 1016.56 1016.59 1017.28 1017.87 1018.51 1018.56 1019.16 1019.55 1019.74
1013.59 1013.43 1013.22 1012.91 1012.49 1012.37 1012.27 1011.97 1011.68 1011.44 1010.98 1010.47 1009.75 1009.17 1008.99 1009.13 1008.90 1008.75 1008.86 1009.03 1009.38 1009.40 1009.82 1010.44 1011.06 1011.87 1012.49 1013.45 1013.94 1014.51 1015.35 1015.69 1016.06 1016.12 1016.59 1016.98 1017.20 1018.04 1018.49 1018.33 1018.69 1019.29 1019.51
1014.10 1014.13 1014.06 1013.91 1013.67 1013.43 1013.11 1012.71 1012.24 1011.45 1010.84 1010.18 1009.65 1009.26 1008.82 1008.41 1008.06 1008.28 1008.12 1008.35 1008.81 1009.30 1009.45 1010.01 1010.43 1011.07 1011.75 1012.88 1013.45 1014.00 1014.46 1015.18 1015.50 1016.22 1016.22 1017.19 1017.13 1017.44 1017.70 1018.30 1018.46 1018.85 1019.22
1014.75 1014.69 1014.60 1014.39 1014.01 1013.68 1013.26 1012.70 1012.16 1011.66 1010.93 1010.37 1009.48 1008.60 1008.04 1007.50 1007.52 1007.57 1007.75 1007.95 1008.22 1008.52 1009.31 1009.43 1009.93 1010.52 1010.95 1011.72 1012.83 1013.78 1014.23 1014.45 1015.31 1015.57 1015.78 1016.34 1016.68 1016.94 1017.35 1018.38 1018.38 1018.90 1019.10
1015.16 1015.35 1015.44 1015.03 1014.61 1014.12 1013.62 1012.64 1011.98 1011.44 1010.35 1009.48 1008.72 1007.66 1007.25 1006.75 1006.68 1006.78 1006.78 1007.23 1007.54 1007.84 1008.27 1009.11 1009.11 1009.72 1010.60 1011.38 1012.20 1013.20 1013.46 1014.11 1014.50 1015.05 1015.26 1015.61 1016.49 1016.62 1017.50 1018.04 1018.53 1018.76 1019.12
1015.55 1015.52 1015.23 1014.64 1014.17 1013.83 1013.51 1013.09 1012.02 1011.00 1009.67 1008.74 1007.97 1007.12 1006.39 1005.94 1005.72 1005.75 1005.92 1006.25 1006.62 1006.99 1007.72 1007.75 1008.43 1008.65 1009.75 1010.66 1011.53 1012.28 1012.83 1013.53 1014.22 1014.62 1014.94 1015.65 1016.13 1016.45 1017.33 1017.91 1018.29 1018.58 1018.91
1015.55 1015.42 1015.08 1014.65 1014.20 1013.82 1013.28 1012.51 1011.86 1011.00 1009.41 1007.89 1007.08 1006.38 1005.77 1005.33 1004.99 1005.06 1005.06 1005.34 1005.43 1005.87 1005.98 1006.38 1007.22 1007.71 1008.31 1008.93 1009.94 1010.82 1011.67 1012.59 1013.39 1014.19 1014.90 1015.68 1015.88 1016.35 1017.24 1017.59 1017.76 1018.29 1018.59
1015.23 1015.01 1014.77 1014.38 1013.94 1013.41 1012.79 1012.08 1011.57 1010.85 1009.45 1007.86 1006.53 1005.67 1005.05 1004.70 1004.45 1004.45 1004.68 1004.76 1004.86 1004.99 1005.36 1005.71 1006.04 1006.85 1007.46 1008.51 1009.34 1010.28 1010.98 1011.90 1012.95 1013.75 1014.35 1015.09 1015.41 1015.90 1016.69 1017.03 1017.30 1017.82 1018.43
Thickness
5620 5628 5625 5634 5641 5644 5643 5646 5645 5647 5651 5656 5654 5656 5657 5663 5664 5667 5668 5670 5670 5670 5667 5669 5674 5677 5676 5675 5674 5673 5674 5672 5674 5669 5667 5668 5672 5668 5666 5662 5661 5657 5656
5615 5623 5625 5629 5631 5633 5638 5639 5640 5642 5645 5646 5651 5653 5653 5656 5658 5660 5660 5662 5662 5663 5667 5666 5668 5668 5668 5669 5670 5670 5669 5669 5669 5662 5660 5656 5660 5660 5656 5655 5654 5650 5649
5613 5617 5613 5624 5629 5629 5632 5635 5637 5636 5635 5638 5642 5649 5651 5650 5647 5653 5656 5658 5657 5660 5660 5661 5660 5662 5659 5659 5660 5664 5664 5658 5660 5660 5655 5647 5641 5648 5650 5647 5645 5643 5638
5608 5609 5610 5613 5623 5622 5630 5632 5630 5631 5628 5631 5633 5637 5640 5640 5644 5647 5648 5651 5651 5651 5653 5651 5650 5652 5649 5647 5648 5649 5651 5650 5647 5645 5642 5642 5640 5634 5634 5641 5638 5635 5634
5603 5607 5609 5611 5614 5619 5627 5626 5619 5622 5623 5625 5629 5633 5635 5637 5638 5637 5639 5639 5643 5641 5646 5647 5644 5646 5646 5638 5641 5640 5641 5635 5630 5634 5632 5628 5626 5628 5625 5623 5630 5628 5625
5602 5605 5608 5609 5606 5612 5615 5616 5617 5622 5623 5628 5631 5629 5632 5638 5632 5635 5632 5630 5634 5634 5641 5642 5646 5642 5638 5636 5636 5634 5636 5633 5628 5630 5624 5619 5617 5616 5615 5619 5623 5626 5626
5599 5599 5604 5607 5610 5613 5611 5615 5620 5620 5623 5626 5628 5629 5634 5633 5633 5635 5638 5634 5634 5632 5636 5640 5640 5630 5629 5631 5628 5623 5622 5624 5625 5622 5621 5618 5617 5615 5613 5609 5613 5613 5614
5606 5603 5605 5611 5615 5616 5619 5619 5623 5625 5629 5629 5633 5631 5630 5634 5641 5635 5631 5636 5633 5631 5633 5635 5628 5622 5623 5622 5617 5612 5615 5615 5616 5615 5618 5616 5612 5609 5605 5602 5600 5598 5598
5594 5601 5601 5602 5609 5612 5615 5619 5623 5623 5627 5628 5631 5630 5630 5632 5630 5639 5634 5631 5631 5630 5626 5623 5616 5615 5616 5615 5611 5608 5610 5611 5609 5610 5611 5607 5603 5600 5598 5596 5591 5584 5583
5595 5596 5597 5598 5602 5606 5609 5615 5619 5622 5624 5624 5626 5630 5630 5629 5627 5628 5628 5625 5624 5623 5621 5616 5615 5611 5608 5606 5606 5606 5604 5603 5602 5598 5597 5597 5590 5589 5584 5580 5575 5569 5569
5591 5594 5595 5598 5601 5604 5607 5610 5611 5610 5613 5615 5616 5620 5627 5624 5623 5620 5622 5619 5616 5613 5610 5611 5607 5603 5601 5599 5598 5596 5594 5592 5589 5588 5588 5587 5582 5576 5573 5567 5561 5560 5555
5592 5597 5598 5600 5601 5600 5603 5602 5606 5609 5607 5606 5607 5607 5612 5609 5609 5612 5611 5608 5608 5606 5602 5600 5599 5596 5593 5592 5592 5588 5585 5584 5581 5578 5576 5574 5569 5566 5560 5556 5549 5552 5547
5591 5593 5590 5590 5592 5591 5592 5594 5597 5597 5596 5597 5599 5600 5597 5596 5597 5599 5597 5595 5595 5595 5594 5592 5591 5588 5583 5582 5579 5576 5575 5574 5573 5570 5568 5565 5561 5554 5550 5549 5545 5541 5535
5579 5578 5573 5580 5583 5582 5580 5582 5584 5586 5585 5586 5585 5586 5586 5584 5585 5584 5585 5584 5584 5585 5584 5584 5580 5579 5576 5572 5572 5566 5566 5564 5564 5560 5559 5556 5551 5549 5542 5536 5534 5531 5528
5569 5567 5568 5569 5568 5568 5570 5572 5572 5572 5573 5572 5574 5574 5573 5573 5572 5570 5571 5573 5574 5572 5573 5570 5568 5568 5564 5561 5559 5556 5552 5555 5550 5551 5546 5541 5543 5535 5535 5530 5524 5522 5521
5546 5551 5557 5558 5557 5560 5560 5559 5559 5560 5558 5560 5562 5562 5562 5561 5561 5561 5560 5559 5559 5557 5555 5557 5555 5553 5552 5550 5546 5550 5545 5546 5540 5536 5537 5531 5530 5526 5524 5520 5515 5513 5508
5526 5526 5528 5530 5531 5534 5534 5541 5544 5545 5545 5544 5543 5546 5550 5549 5550 5549 5547 5545 5544 5546 5546 5544 5543 5542 5540 5536 5536 5536 5533 5531 5530 5528 5525 5524 5522 5516 5511 5506 5506 5500 5497
5517 5509 5509 5509 5508 5512 5515 5521 5523 5524 5526 5531 5532 5530 5529 5531 5531 5534 5537 5539 5536 5535 5533 5533 5532 5531 5532 5524 5523 5519 5520 5518 5519 5517 5517 5516 5514 5509 5505 5499 5492 5487 5486
5545 5541 5534 5525 5520 5515 5509 5503 5499 5497 5499 5502 5505 5512 5514 5519 5520 5520 5519 5521 5521 5521 5523 5521 5517 5518 5521 5515 5514 5512 5504 5503 5503 5505 5508 5507 5501 5496 5491 5491 5486 5480 5477
5531 5530 5527 5524 5521 5514 5505 5498 5490 5483 5479 5478 5482 5483 5483 5491 5498 5504 5505 5504 5503 5507 5508 5507 5508 5507 5507 5502 5502 5499 5495 5495 5495 5496 5492 5491 5489 5484 5478 5482 5477 5470 5469
5515 5509 5503 5497 5492 5486 5479 5472 5465 5462 5460 5460 5460 5461 5464 5465 5468 5476 5486 5490 5490 5490 5492 5494 5496 5496 5497 5491 5490 5488 5489 5485 5485 5479 5482 5476 5477 5475 5474 5469 5466 5461 5460
5493 5488 5483 5478 5471 5463 5455 5450 5444 5440 5439 5437 5441 5445 5444 5446 5447 5450 5458 5468 5474 5476 5476 5481 5482 5483 5485 5486 5479 5474 5474 5477 5471 5472 5472 5470 5470 5467 5465 5455 5455 5450 5449
5477 5466 5457 5450 5443 5436 5427 5426 5425 5423 5425 5423 5422 5426 5425 5429 5429 5434 5444 5448 5456 5463 5467 5469 5474 5472 5471 5471 5467 5464 5467 5464 5464 5464 5464 5463 5458 5458 5451 5446 5442 5441 5438
5457 5449 5441 5436 5428 5417 5406 5403 5407 5406 5407 5405 5402 5403 5406 5411 5418 5423 5429 5438 5444 5452 5455 5461 5462 5466 5463 5461 5458 5457 5457 5455 5453 5453 5454 5452 5449 5448 5441 5437 5434 5432 5430
5442 5433 5423 5416 5406 5396 5393 5394 5390 5386 5390 5391 5386 5385 5390 5399 5407 5411 5423 5431 5441 5445 5455 5457 5457 5459 5461 5464 5460 5456 5452 5448 5447 5445 5443 5439 5440 5437 5431 5429 5429 5425 5424
5430 5418 5406 5399 5392 5386 5385 5384 5378 5374 5377 5379 5381 5385 5390 5395 5400 5409 5417 5425 5433 5439 5444 5450 5454 5456 5457 5454 5453 5449 5447 5443 5439 5436 5436 5433 5433 5430 5425 5424 5423 5419 5415